START_TIME,STEP,MOV.,AL01,t_acc.,AL02,t_acc.,E37,t_acc.,H21,t_acc.
1979-07-04 21:00:35.080 ,0,0,0.,24.0,0.,24.0,0.,24.0,0.,24.0
1979-07-04 21:00:59.080 ,0,1,0.,24.0,0.,24.0,0.,24.0,0.,24.0
1979-07-04 21:01:23.080 ,0,0,0.,24.0,0.,24.0,0.,24.0,0.,24.0
1979-07-04 21:01:47.080 ,1,1,0.,24.0,0.,24.0,1.,24.0,0.,24.0
1979-07-04 21:02:11.080 ,1,0,0.,24.0,0.,24.0,0.,24.0,0.,24.0
1979-07-04 21:02:35.080 ,2,1,0.,24.0,1.,24.0,0.,24.0,0.,24.0
1979-07-04 21:02:59.080 ,2,0,0.,24.0,1.,24.0,2.,24.0,0.,24.0
1979-07-04 21:03:23.080 ,3,1,0.,24.0,0.,24.0,0.,24.0,0.,24.0
1979-07-04 21:03:47.080 ,3,0,0.,24.0,0.,24.0,0.,24.0,0.,24.0
1979-07-04 21:04:11.080 ,4,1,0.,24.0,0.,24.0,0.,24.0,0.,24.0
1979-07-04 21:04:35.080 ,4,0,1.,24.0,0.,24.0,1.,24.0,0.,24.0
1979-07-04 21:04:59.080 ,5,1,0.,24.0,0.,24.0,0.,24.0,0.,24.0
1979-07-04 21:05:23.080 ,5,0,0.,24.0,1.,24.0,0.,24.0,0.,24.0
1979-07-04 21:05:47.080 ,6,1,1.,24.0,0.,24.0,0.,24.0,0.,24.0
1979-07-04 21:06:11.080 ,6,0,0.,24.0,0.,24.0,0.,24.0,0.,24.0
1979-07-04 21:06:35.080 ,7,0,10.,24.0,0.,24.0,0.,24.0,0.,24.0
1979-07-04 21:06:59.080 ,7,0,27.,24.0,0.,24.0,0.,24.0,0.,24.0
1979-07-04 21:07:23.080 ,5,1,15.,24.0,0.,24.0,1.,24.0,0.,24.0
1979-07-04 21:07:47.080 ,1,1,0.,24.0,0.,24.0,0.,24.0,0.,24.0
1979-07-04 21:08:11.080 ,2,1,0.,24.0,0.,24.0,1.,24.0,0.,24.0
1979-07-04 21:08:35.080 ,0,0,0.,24.0,0.,24.0,0.,24.0,0.,24.0
1979-07-04 21:09:05.680 ,0,0,14.,24.0,0.,24.0,1.,24.0,0.,24.0
1979-07-04 21:09:23.080 ,1,1,1.,24.0,0.,24.0,0.,24.0,0.,24.0
1979-07-04 21:09:47.080 ,2,1,0.,24.0,0.,24.0,1.,24.0,0.,24.0
1979-07-04 21:10:11.080 ,6,1,1.,24.0,1.,24.0,0.,24.0,0.,24.0
1979-07-04 21:10:35.080 ,5,1,15.,24.0,0.,24.0,0.,24.0,0.,24.0
1979-07-04 21:10:59.080 ,1,1,0.,24.0,0.,24.0,0.,24.0,0.,24.0
1979-07-04 21:11:23.080 ,2,1,0.,24.0,0.,24.0,0.,24.0,0.,24.0
1979-07-04 21:11:47.080 ,6,1,2.,24.0,0.,24.0,1.,24.0,0.,24.0
1979-07-04 21:12:11.080 ,5,1,12.,24.0,0.,24.0,1.,24.0,0.,24.0
1979-07-04 21:12:35.080 ,1,1,0.,24.0,0.,24.0,0.,24.0,0.,24.0
1979-07-04 21:12:59.080 ,2,1,0.,24.0,0.,24.0,0.,24.0,0.,24.0
1979-07-04 21:13:23.080 ,0,0,2.,24.0,0.,24.0,0.,24.0,0.,24.0
1979-07-04 21:13:57.880 ,0,0,15.,24.0,0.,24.0,1.,24.0,0.,24.0
1979-07-04 23:08:59.070 ,0,0,0.,24.0,0.,24.0,1.,24.0,0.,24.0
1979-07-04 23:09:23.070 ,0,0,1.,24.0,1.,24.0,1.,24.0,0.,24.0
1979-07-04 23:09:47.070 ,2,1,0.,24.0,0.,24.0,0.,24.0,0.,24.0
1979-07-04 23:10:11.070 ,2,0,0.,24.0,0.,24.0,2.,24.0,0.,24.0
1979-07-04 23:10:35.070 ,1,1,0.,24.0,0.,24.0,1.,24.0,0.,24.0
1979-07-04 23:10:59.070 ,1,0,0.,24.0,0.,24.0,2.,24.0,0.,24.0
1979-07-04 23:11:23.070 ,0,1,0.,24.0,0.,24.0,3.,24.0,0.,24.0
1979-07-04 23:11:47.070 ,0,0,0.,24.0,0.,24.0,1.,24.0,0.,24.0
1979-07-04 23:12:11.070 ,0,1,0.,24.0,0.,24.0,0.,24.0,0.,24.0
1979-07-04 23:12:35.070 ,0,0,0.,24.0,0.,24.0,1.,24.0,0.,24.0
1979-07-04 23:12:59.070 ,1,1,0.,24.0,0.,24.0,1.,24.0,0.,24.0
1979-07-04 23:13:23.070 ,1,0,0.,24.0,0.,24.0,4.,24.0,0.,24.0
1979-07-04 23:13:47.070 ,2,1,0.,24.0,0.,24.0,0.,24.0,0.,24.0
1979-07-04 23:14:11.070 ,2,0,0.,24.0,0.,24.0,2.,24.0,0.,24.0
1979-07-04 23:14:35.070 ,3,1,0.,24.0,0.,24.0,1.,24.0,0.,24.0
1979-07-04 23:14:59.070 ,3,0,0.,24.0,0.,24.0,2.,24.0,0.,24.0
1979-07-04 23:15:23.070 ,4,1,0.,24.0,0.,24.0,0.,24.0,0.,24.0
1979-07-04 23:15:47.070 ,4,0,0.,24.0,0.,24.0,1.,24.0,0.,24.0
1979-07-04 23:16:11.070 ,5,1,1.,24.0,1.,24.0,4.,24.0,0.,24.0
1979-07-04 23:16:35.070 ,5,0,2.,24.0,0.,24.0,2.,24.0,0.,24.0
1979-07-04 23:16:59.070 ,6,1,0.,24.0,0.,24.0,0.,24.0,0.,24.0
1979-07-04 23:17:23.070 ,6,0,1.,24.0,0.,24.0,1.,24.0,0.,24.0
1979-07-04 23:17:47.070 ,7,1,10.,24.0,0.,24.0,2.,24.0,0.,24.0
1979-07-04 23:18:11.070 ,7,0,26.,24.0,0.,24.0,2.,24.0,0.,24.0
1979-07-04 23:18:35.070 ,7,1,29.,24.0,0.,24.0,1.,24.0,0.,24.0
1979-07-04 23:18:59.070 ,7,0,34.,24.0,0.,24.0,2.,24.0,0.,24.0
1979-07-04 23:19:23.070 ,6,1,16.,24.0,0.,24.0,5.,24.0,0.,24.0
1979-07-04 23:19:47.070 ,6,0,2.,24.0,0.,24.0,4.,24.0,0.,24.0
1979-07-04 23:20:11.070 ,5,1,0.,24.0,0.,24.0,2.,24.0,0.,24.0
1979-07-04 23:20:35.070 ,5,0,0.,24.0,0.,24.0,3.,24.0,0.,24.0
1979-07-04 23:20:59.070 ,4,1,1.,24.0,0.,24.0,1.,24.0,0.,24.0
1979-07-04 23:21:23.070 ,4,0,0.,24.0,0.,24.0,4.,24.0,0.,24.0
1979-07-04 23:21:47.070 ,3,1,3.,24.0,0.,24.0,2.,24.0,0.,24.0
1979-07-04 23:22:11.070 ,3,0,1.,24.0,1.,24.0,1.,24.0,0.,24.0
1979-07-04 23:22:35.070 ,2,1,0.,24.0,0.,24.0,2.,24.0,0.,24.0
1979-07-04 23:22:59.070 ,2,0,0.,24.0,0.,24.0,4.,24.0,0.,24.0
1979-07-04 23:23:23.070 ,1,1,0.,24.0,0.,24.0,3.,24.0,0.,24.0
1979-07-04 23:23:47.070 ,1,0,0.,24.0,0.,24.0,5.,24.0,0.,24.0
1979-07-04 23:24:11.070 ,0,1,0.,24.0,1.,24.0,3.,24.0,0.,24.0
1979-07-04 23:24:35.070 ,0,0,1.,24.0,0.,24.0,3.,24.0,0.,24.0
1979-07-04 23:24:59.070 ,0,1,0.,24.0,0.,24.0,1.,24.0,0.,24.0
1979-07-04 23:25:23.070 ,0,0,0.,24.0,0.,24.0,0.,24.0,0.,24.0
1979-07-04 23:25:47.070 ,1,1,0.,24.0,0.,24.0,1.,24.0,0.,24.0
1979-07-04 23:26:11.070 ,1,0,0.,24.0,0.,24.0,3.,24.0,0.,24.0
1979-07-04 23:26:35.070 ,2,1,0.,24.0,0.,24.0,1.,24.0,0.,24.0
1979-07-04 23:26:59.070 ,2,0,0.,24.0,0.,24.0,4.,24.0,0.,24.0
1979-07-04 23:27:23.070 ,3,1,0.,24.0,0.,24.0,2.,24.0,0.,24.0
1979-07-04 23:27:47.070 ,3,0,1.,24.0,0.,24.0,1.,24.0,0.,24.0
1979-07-04 23:28:11.070 ,4,1,2.,24.0,0.,24.0,3.,24.0,0.,24.0
1979-07-04 23:28:35.070 ,4,0,1.,24.0,0.,24.0,4.,24.0,0.,24.0
1979-07-04 23:28:59.070 ,5,1,5.,24.0,0.,24.0,3.,24.0,0.,24.0
1979-07-04 23:29:23.070 ,5,0,3.,24.0,0.,24.0,5.,24.0,0.,24.0
1979-07-04 23:29:47.070 ,6,1,2.,24.0,0.,24.0,7.,24.0,0.,24.0
1979-07-04 23:30:11.070 ,6,0,3.,24.0,1.,24.0,5.,24.0,0.,24.0
1979-07-04 23:30:35.070 ,7,0,7.,24.0,0.,24.0,2.,24.0,0.,24.0
1979-07-04 23:30:59.070 ,7,0,30.,24.0,0.,24.0,2.,24.0,0.,24.0
1979-07-04 23:31:23.070 ,5,1,21.,24.0,0.,24.0,5.,24.0,0.,24.0
1979-07-04 23:31:47.070 ,1,1,0.,24.0,0.,24.0,3.,24.0,0.,24.0
1979-07-04 23:32:11.070 ,2,1,0.,24.0,0.,24.0,3.,24.0,0.,24.0
1979-07-04 23:32:35.070 ,6,1,0.,24.0,1.,24.0,5.,24.0,0.,24.0
1979-07-04 23:32:59.070 ,5,1,15.,24.0,0.,24.0,1.,24.0,0.,24.0
1979-07-04 23:33:23.070 ,1,1,0.,24.0,0.,24.0,2.,24.0,0.,24.0
1979-07-04 23:33:47.070 ,2,1,0.,24.0,0.,24.0,6.,24.0,0.,24.0
1979-07-04 23:34:11.070 ,6,1,1.,24.0,0.,24.0,4.,24.0,0.,24.0
1979-07-04 23:34:35.070 ,5,1,18.,24.0,0.,24.0,5.,24.0,0.,24.0
1979-07-04 23:34:59.070 ,1,1,0.,24.0,0.,24.0,4.,24.0,0.,24.0
1979-07-04 23:35:23.070 ,2,1,0.,24.0,0.,24.0,3.,24.0,0.,24.0
1979-07-04 23:35:47.070 ,6,1,1.,24.0,0.,24.0,3.,24.0,0.,24.0
1979-07-04 23:36:11.070 ,5,1,10.,24.0,0.,24.0,9.,24.0,0.,24.0
1979-07-04 23:36:35.070 ,1,1,1.,24.0,0.,24.0,3.,24.0,0.,24.0
1979-07-04 23:36:59.070 ,2,1,0.,24.0,0.,24.0,4.,24.0,0.,24.0
1979-07-04 23:37:23.070 ,6,1,2.,24.0,0.,24.0,6.,24.0,0.,24.0
1979-07-04 23:37:47.070 ,5,1,20.,24.0,1.,24.0,10.,24.0,0.,24.0
1979-07-04 23:38:11.070 ,1,1,1.,24.0,0.,24.0,6.,24.0,0.,24.0
1979-07-04 23:38:35.070 ,2,1,0.,24.0,0.,24.0,2.,24.0,0.,24.0
1979-07-04 23:38:59.070 ,6,1,2.,24.0,0.,24.0,9.,24.0,0.,24.0
1979-07-04 23:39:23.070 ,5,1,15.,24.0,0.,24.0,9.,24.0,0.,24.0
1979-07-04 23:39:47.070 ,1,1,1.,24.0,1.,24.0,10.,24.0,0.,24.0
1979-07-04 23:40:11.070 ,2,1,1.,24.0,0.,24.0,6.,24.0,0.,24.0
1979-07-04 23:40:35.070 ,6,1,2.,24.0,0.,24.0,6.,24.0,0.,24.0
1979-07-04 23:40:59.070 ,5,1,18.,24.0,0.,24.0,13.,24.0,0.,24.0
1979-07-04 23:41:23.070 ,1,1,1.,24.0,0.,24.0,4.,24.0,0.,24.0
1979-07-04 23:41:47.070 ,0,0,0.,24.0,0.,24.0,5.,24.0,0.,24.0
1979-07-04 23:42:11.070 ,0,0,1.,24.0,0.,24.0,11.,24.0,0.,24.0
1979-07-04 23:42:35.070 ,5,1,19.,24.0,0.,24.0,5.,24.0,0.,24.0
1979-07-04 23:42:59.070 ,5,0,4.,24.0,1.,24.0,9.,24.0,0.,24.0
1979-07-04 23:43:23.070 ,4,1,0.,24.0,0.,24.0,7.,24.0,0.,24.0
1979-07-04 23:43:47.070 ,4,0,1.,24.0,0.,24.0,5.,24.0,0.,24.0
1979-07-04 23:44:11.070 ,3,1,4.,24.0,0.,24.0,4.,24.0,0.,24.0
1979-07-04 23:44:35.070 ,3,0,0.,24.0,0.,24.0,5.,24.0,0.,24.0
1979-07-04 23:44:59.070 ,2,1,1.,24.0,2.,24.0,7.,24.0,0.,24.0
1979-07-04 23:45:23.070 ,2,0,0.,24.0,0.,24.0,10.,24.0,0.,24.0
1979-07-04 23:45:47.070 ,1,1,0.,24.0,0.,24.0,8.,24.0,0.,24.0
1979-07-04 23:46:11.070 ,1,0,1.,24.0,0.,24.0,13.,24.0,0.,24.0
1979-07-04 23:46:35.070 ,0,1,0.,24.0,0.,24.0,4.,24.0,0.,24.0
1979-07-04 23:46:59.070 ,0,0,0.,24.0,0.,24.0,8.,24.0,0.,24.0
1979-07-04 23:47:23.070 ,0,1,0.,24.0,0.,24.0,11.,24.0,0.,24.0
1979-07-04 23:47:47.070 ,0,0,0.,24.0,0.,24.0,13.,24.0,0.,24.0
1979-07-04 23:48:11.070 ,1,1,0.,24.0,0.,24.0,11.,24.0,0.,24.0
1979-07-04 23:48:35.070 ,1,0,1.,24.0,0.,24.0,11.,24.0,0.,24.0
1979-07-04 23:48:59.070 ,2,1,0.,24.0,0.,24.0,13.,24.0,0.,24.0
1979-07-04 23:49:23.070 ,2,0,0.,24.0,0.,24.0,9.,24.0,0.,24.0
1979-07-04 23:49:47.070 ,3,1,0.,24.0,0.,24.0,13.,24.0,0.,24.0
1979-07-04 23:50:11.070 ,3,0,0.,24.0,0.,24.0,5.,24.0,0.,24.0
1979-07-04 23:50:35.070 ,4,1,0.,24.0,0.,24.0,7.,24.0,0.,24.0
1979-07-04 23:50:59.070 ,4,0,2.,24.0,0.,24.0,7.,24.0,0.,24.0
1979-07-04 23:51:23.070 ,5,1,1.,24.0,0.,24.0,17.,24.0,0.,24.0
1979-07-04 23:51:47.070 ,5,0,1.,24.0,0.,24.0,3.,24.0,0.,24.0
1979-07-04 23:52:11.070 ,6,1,4.,24.0,0.,24.0,11.,24.0,0.,24.0
1979-07-04 23:52:35.070 ,6,0,2.,24.0,1.,24.0,7.,24.0,0.,24.0
1979-07-04 23:52:59.070 ,7,1,14.,24.0,0.,24.0,6.,24.0,0.,24.0
1979-07-04 23:53:23.070 ,7,0,34.,24.0,0.,24.0,13.,24.0,0.,24.0
1979-07-04 23:53:47.070 ,7,1,45.,24.0,0.,24.0,11.,24.0,0.,24.0
1979-07-04 23:54:11.070 ,7,0,34.,24.0,0.,24.0,14.,24.0,0.,24.0
1979-07-04 23:54:35.070 ,6,1,37.,24.0,0.,24.0,11.,24.0,0.,24.0
1979-07-04 23:54:59.070 ,6,0,4.,24.0,0.,24.0,17.,24.0,0.,24.0
1979-07-04 23:55:23.070 ,5,1,3.,24.0,0.,24.0,14.,24.0,0.,24.0
1979-07-04 23:55:47.070 ,5,0,5.,24.0,1.,24.0,14.,24.0,0.,24.0
1979-07-04 23:56:11.070 ,4,1,4.,24.0,2.,24.0,21.,24.0,0.,24.0
1979-07-04 23:56:35.070 ,4,0,2.,24.0,0.,24.0,23.,24.0,0.,24.0
1979-07-04 23:56:59.070 ,3,1,2.,24.0,0.,24.0,15.,24.0,0.,24.0
1979-07-04 23:57:23.070 ,3,0,1.,24.0,1.,24.0,11.,24.0,0.,24.0
1979-07-04 23:57:47.070 ,2,1,0.,24.0,0.,24.0,12.,24.0,0.,24.0
1979-07-04 23:58:11.070 ,2,0,1.,24.0,0.,24.0,13.,24.0,0.,24.0
1979-07-04 23:58:35.070 ,1,1,1.,24.0,0.,24.0,22.,24.0,0.,24.0
1979-07-04 23:58:59.070 ,1,0,0.,24.0,0.,24.0,18.,24.0,0.,24.0
1979-07-04 23:59:23.070 ,0,1,1.,24.0,0.,24.0,9.,24.0,0.,24.0
1979-07-04 23:59:47.070 ,0,0,0.,24.0,0.,24.0,14.,24.0,0.,24.0
1979-07-05 00:00:11.070 ,0,1,0.,24.0,0.,24.0,24.,24.0,0.,24.0
